CUTE (49263 NORAD) Tracking and Keplerian Element Data

This shows tracking and keplerian element data for the satellite.

Feedback or suggestion? Click here.




ElementValue
Catalog49263
NameCUTE
Epoch Orbit1036
Epoch Day339.90443229
Epoch Year2021
RAAN46.6749
Inclination97.6149
Eccentricity0.0018527
Argument of Perigee15.2471
Mean Anonmoly344.9308
Mean Motion15.01767702
Decay Rate6.85E-06
L11 49263U 21088D 21339.90443229 .00000685 00000+0 57068-4 0 9992
L22 49263 97.6149 46.6749 0018527 15.2471 344.9308 15.01767702 10368

Live tracking and technical data element details for CUTE (NORAD 49263). CUTE can be tracked NOW for your location showing map with azimuth and elevation plus other details from your city location.

Track the satellite on the map from your city or location and see movement details for azimuth, elevation, latitude, longitude, range, height, and movement on the map or in text.







IsCatalogInMostPopularTable: catalog: 49263, numindb: 12
Update: records affected: 1



GetName: 49263 CUTE

Hit Count: updated at: Mon, 06 Dec 2021 14:50:23 GMT